When you browse on this site, cookies collect data to enhance your experience and personalize the content and advertising you see.
Visit our Privacy Policy to learn more. By continuing to use the site, you agree to this use of cookies and data.
  • In Schweiz
  • Länderverzeichnis
  • Für 7 Tage
  • Wassertemperatur
  • Satellitenkarten
  • Wetterkarte
  • Widgets
  • user-avatar
    Anmelden

    Stündliche Wetter Motschudi

    Heute, 18 November, Sonntag

    Zeit Temperatur Niederschläge Wind Luftdruck Luftfeuchtigkeit
    00:00 +31°C° 0 mm 2 m/S 680 mmHg 20%
    01:00 +30°C° 0 mm 2 m/S 680 mmHg 21%
    02:00 +29°C° 0 mm 3 m/S 680 mmHg 23%
    03:00 +29°C° 0 mm 3 m/S 680 mmHg 23%
    04:00 +28°C° 0 mm 3 m/S 680 mmHg 24%
    05:00 +27°C° 0 mm 3 m/S 680 mmHg 24%
    06:00 +29°C° 0 mm 4 m/S 681 mmHg 23%
    07:00 +30°C° 0 mm 5 m/S 681 mmHg 23%
    08:00 +32°C° 0 mm 7 m/S 682 mmHg 23%
    09:00 +34°C° 0 mm 6 m/S 682 mmHg 22%
    10:00 +36°C° 0 mm 6 m/S 682 mmHg 20%
    11:00 +38°C° 0 mm 6 m/S 683 mmHg 19%
    12:00 +40°C° 0 mm 5 m/S 682 mmHg 17%
    13:00 +41°C° 0 mm 5 m/S 681 mmHg 15%
    14:00 +42°C° 0 mm 5 m/S 681 mmHg 13%
    15:00 +41°C° 0 mm 5 m/S 680 mmHg 13%
    16:00 +41°C° 0 mm 5 m/S 680 mmHg 13%
    17:00 +41°C° 0 mm 5 m/S 679 mmHg 13%
    18:00 +39°C° 0 mm 5 m/S 679 mmHg 15%
    19:00 +36°C° 0 mm 5 m/S 679 mmHg 18%
    20:00 +35°C° 0 mm 4 m/S 680 mmHg 20%
    21:00 +34°C° 0.1 mm 5 m/S 680 mmHg 24%
    22:00 +33°C° 0.1 mm 5 m/S 681 mmHg 27%
    23:00 +32°C° 0.1 mm 6 m/S 681 mmHg 31%

    Morgen, 19 November, Montag

    Zeit Temperatur Niederschläge Wind Luftdruck Luftfeuchtigkeit
    00:00 +30°C° 0.1 mm 6 m/S 681 mmHg 35%
    01:00 +29°C° 0.1 mm 6 m/S 681 mmHg 39%
    02:00 +28°C° 0.1 mm 7 m/S 681 mmHg 42%
    03:00 +27°C° 0 mm 6 m/S 681 mmHg 43%
    04:00 +27°C° 0 mm 6 m/S 681 mmHg 44%
    05:00 +27°C° 0 mm 6 m/S 681 mmHg 44%
    06:00 +27°C° 0 mm 6 m/S 681 mmHg 46%
    07:00 +27°C° 0 mm 7 m/S 682 mmHg 47%
    08:00 +27°C° 0 mm 8 m/S 682 mmHg 48%
    09:00 +29°C° 0 mm 8 m/S 682 mmHg 44%
    10:00 +32°C° 0 mm 8 m/S 683 mmHg 39%
    11:00 +34°C° 0 mm 8 m/S 683 mmHg 34%
    12:00 +35°C° 0 mm 7 m/S 682 mmHg 30%
    13:00 +36°C° 0 mm 7 m/S 682 mmHg 26%
    14:00 +39°C° 0 mm 7 m/S 681 mmHg 22%
    15:00 +39°C° 0 mm 6 m/S 680 mmHg 21%
    16:00 +39°C° 0 mm 6 m/S 680 mmHg 20%
    17:00 +39°C° 0 mm 5 m/S 679 mmHg 20%
    18:00 +36°C° 0 mm 5 m/S 679 mmHg 22%
    19:00 +35°C° 0 mm 5 m/S 679 mmHg 25%
    20:00 +33°C° 0 mm 5 m/S 679 mmHg 28%
    21:00 +32°C° 0 mm 5 m/S 679 mmHg 30%
    22:00 +32°C° 0 mm 5 m/S 679 mmHg 32%
    23:00 +30°C° 0 mm 6 m/S 680 mmHg 34%

    übermorgen, 20 November, Dienstag

    Zeit Temperatur Niederschläge Wind Luftdruck Luftfeuchtigkeit
    00:00 +29°C° 0 mm 6 m/S 679 mmHg 35%
    01:00 +29°C° 0 mm 6 m/S 679 mmHg 37%
    02:00 +28°C° 0 mm 6 m/S 678 mmHg 38%
    03:00 +27°C° 0 mm 6 m/S 678 mmHg 40%
    04:00 +27°C° 0 mm 5 m/S 678 mmHg 42%
    05:00 +26°C° 0 mm 4 m/S 678 mmHg 45%
    06:00 +27°C° 0 mm 5 m/S 679 mmHg 42%
    07:00 +28°C° 0 mm 5 m/S 680 mmHg 39%
    08:00 +30°C° 0 mm 5 m/S 680 mmHg 37%
    09:00 +33°C° 0 mm 5 m/S 680 mmHg 32%
    10:00 +34°C° 0 mm 5 m/S 681 mmHg 28%
    11:00 +36°C° 0 mm 5 m/S 681 mmHg 24%
    12:00 +39°C° 0 mm 5 m/S 680 mmHg 21%
    13:00 +40°C° 0 mm 5 m/S 679 mmHg 19%
    14:00 +41°C° 0 mm 4 m/S 679 mmHg 17%
    15:00 +40°C° 0.7 mm 5 m/S 678 mmHg 20%
    16:00 +37°C° 0.7 mm 5 m/S 677 mmHg 23%
    17:00 +36°C° 0.7 mm 6 m/S 676 mmHg 27%
    18:00 +34°C° 1.6 mm 6 m/S 676 mmHg 34%
    19:00 +32°C° 1.6 mm 6 m/S 676 mmHg 41%
    20:00 +28°C° 1.6 mm 6 m/S 677 mmHg 48%
    21:00 +28°C° 0.1 mm 4 m/S 677 mmHg 49%
    22:00 +28°C° 0.1 mm 3 m/S 677 mmHg 50%
    23:00 +27°C° 0.1 mm 1 m/S 678 mmHg 50%

    21 November, Mittwoch

    Zeit Temperatur Niederschläge Wind Luftdruck Luftfeuchtigkeit
    00:00 +27°C° 0 mm 1 m/S 677 mmHg 51%
    01:00 +27°C° 0 mm 1 m/S 677 mmHg 51%
    02:00 +26°C° 0 mm 2 m/S 677 mmHg 52%
    03:00 +26°C° 0 mm 2 m/S 677 mmHg 48%
    04:00 +25°C° 0 mm 2 m/S 676 mmHg 44%
    05:00 +25°C° 0 mm 2 m/S 676 mmHg 41%
    06:00 +27°C° 0 mm 2 m/S 677 mmHg 34%
    07:00 +28°C° 0 mm 3 m/S 678 mmHg 28%
    08:00 +30°C° 0 mm 3 m/S 679 mmHg 22%
    09:00 +33°C° 0 mm 3 m/S 679 mmHg 18%
    10:00 +35°C° 0 mm 2 m/S 679 mmHg 13%
    11:00 +37°C° 0 mm 2 m/S 679 mmHg 9%
    12:00 +38°C° 0 mm 2 m/S 679 mmHg 8%
    13:00 +39°C° 0 mm 3 m/S 678 mmHg 7%
    14:00 +40°C° 0 mm 3 m/S 678 mmHg 7%
    15:00 +41°C° 0 mm 4 m/S 677 mmHg 7%
    16:00 +41°C° 0 mm 4 m/S 677 mmHg 7%
    17:00 +41°C° 0 mm 4 m/S 677 mmHg 7%
    18:00 +38°C° 0 mm 3 m/S 677 mmHg 8%
    19:00 +36°C° 0 mm 3 m/S 677 mmHg 10%
    20:00 +34°C° 0 mm 2 m/S 677 mmHg 11%
    21:00 +34°C° 0 mm 2 m/S 677 mmHg 12%
    22:00 +32°C° 0 mm 2 m/S 677 mmHg 13%
    23:00 +31°C° 0 mm 2 m/S 677 mmHg 14%

    22 November, Donnerstag

    Zeit Temperatur Niederschläge Wind Luftdruck Luftfeuchtigkeit
    00:00 +30°C° 0 mm 2 m/S 677 mmHg 14%
    01:00 +29°C° 0 mm 2 m/S 677 mmHg 15%
    02:00 +28°C° 0 mm 1 m/S 676 mmHg 15%
    03:00 +28°C° 0 mm 2 m/S 676 mmHg 17%
    04:00 +27°C° 0 mm 2 m/S 677 mmHg 19%
    05:00 +26°C° 0 mm 2 m/S 677 mmHg 21%
    06:00 +27°C° 0 mm 4 m/S 677 mmHg 28%
    07:00 +28°C° 0 mm 5 m/S 678 mmHg 36%
    08:00 +29°C° 0 mm 7 m/S 679 mmHg 43%
    09:00 +32°C° 0 mm 7 m/S 679 mmHg 40%
    10:00 +34°C° 0 mm 6 m/S 679 mmHg 36%
    11:00 +36°C° 0 mm 6 m/S 679 mmHg 32%
    12:00 +37°C° 0 mm 5 m/S 678 mmHg 28%
    13:00 +38°C° 0 mm 4 m/S 678 mmHg 23%
    14:00 +41°C° 0 mm 4 m/S 678 mmHg 19%
    15:00 +40°C° 0 mm 4 m/S 677 mmHg 20%
    16:00 +40°C° 0 mm 4 m/S 677 mmHg 21%
    17:00 +38°C° 0 mm 4 m/S 677 mmHg 22%
    18:00 +35°C° 0.1 mm 5 m/S 676 mmHg 29%
    19:00 +33°C° 0.1 mm 6 m/S 676 mmHg 37%
    20:00 +30°C° 0.1 mm 6 m/S 676 mmHg 44%
    21:00 +30°C° 0 mm 6 m/S 677 mmHg 43%
    22:00 +29°C° 0 mm 6 m/S 677 mmHg 42%
    23:00 +29°C° 0 mm 5 m/S 678 mmHg 42%

    23 November, Freitag

    Zeit Temperatur Niederschläge Wind Luftdruck Luftfeuchtigkeit
    00:00 +28°C° 0.2 mm 6 m/S 678 mmHg 45%
    01:00 +28°C° 0.2 mm 6 m/S 678 mmHg 47%
    02:00 +27°C° 0.2 mm 6 m/S 678 mmHg 50%
    03:00 +27°C° 0 mm 6 m/S 678 mmHg 53%
    04:00 +26°C° 0 mm 6 m/S 678 mmHg 55%
    05:00 +24°C° 0 mm 6 m/S 679 mmHg 58%
    06:00 +24°C° 0.1 mm 6 m/S 679 mmHg 58%
    07:00 +24°C° 0.1 mm 6 m/S 680 mmHg 58%
    08:00 +25°C° 0.1 mm 5 m/S 680 mmHg 58%
    09:00 +26°C° 0.3 mm 6 m/S 680 mmHg 57%
    10:00 +26°C° 0.3 mm 7 m/S 680 mmHg 56%
    11:00 +27°C° 0.3 mm 7 m/S 681 mmHg 54%
    12:00 +28°C° 0 mm 7 m/S 680 mmHg 51%
    13:00 +29°C° 0 mm 7 m/S 680 mmHg 48%
    14:00 +32°C° 0 mm 7 m/S 680 mmHg 45%
    15:00 +30°C° 0 mm 6 m/S 679 mmHg 47%
    16:00 +30°C° 0 mm 5 m/S 678 mmHg 48%
    17:00 +30°C° 0 mm 4 m/S 677 mmHg 50%
    18:00 +28°C° 0 mm 5 m/S 677 mmHg 54%
    19:00 +27°C° 0 mm 6 m/S 677 mmHg 59%
    20:00 +26°C° 0 mm 6 m/S 677 mmHg 64%
    21:00 +26°C° 0.2 mm 6 m/S 678 mmHg 66%
    22:00 +24°C° 0.2 mm 6 m/S 679 mmHg 68%
    23:00 +24°C° 0.2 mm 6 m/S 679 mmHg 70%
    Mehr zeigen